Location: Holyhead Bay
(53.3667°N, 4.6667°W)
Time: 19:29:28
(UTC+00:00)

Okean-O - Pass Details

Date: 24 November 2020
Orbit: 639 x 640 km, 98.2° (Epoch: 17 January)

Event Time Altitude Azimuth Distance (km) Brightness Sun altitude
Rises 16:54:30 0° 109° (ESE) 2,944 5.6 -6.5°
Reaches altitude 10° 16:57:34 10° 85° (E) 2,040 4.6 -6.9°
Maximum altitude 16:59:58 15° 53° (NE) 1,758 4.3 -7.3°
Drops below altitude 10° 17:02:22 10° 20° (NNE) 2,047 4.8 -7.6°
Sets 17:05:28 0° 356° (N) 2,962 5.8 -8.0°
